User: anonymous   Login
Location: Skalnate Pleso
(49.1889°N, 20.2450°E)
Time: 07:03:30
(UTC+02:00)
Language:

Iridium 45 - Orbit

View from above orbital plane
View from above orbital plane
View from above satellite
View from above satellite

Ground track
Ground track

The orbit data is extracted from the following two-line orbital elements,

1 25104U 97082A   16236.42946315 -.00000046  00000-0 -23670-4 0  9994
2 25104  86.3926  51.7157 0002020 120.5598 239.5797 14.34214143977695
Epoch (UTC): 23 August 2016 10:18:25
Eccentricity: 0.0002020
inclination: 86.3926°
perigee height: 776 km
apogee height: 779 km
right ascension of ascending node: 51.7157°
argument of perigee: 120.5598°
revolutions per day: 14.34214143
mean anomaly at epoch: 239.5797°
orbit number at epoch: 97769

The dashed part of the orbit path shows where the satellite is in the earth's shadow,  

DLR